Terminal Aerodrome Forecast
Issued by NWS

Home | Current Version | Previous Version | Text Only | Print | Product List | Glossary On
Versions: 1 2 3 4 5 6 7 8 9 10 11 12 13 14 15 16
000
FTUS42 KMLB 260500
TAFSFB
TAF
KSFB 260529Z 2606/2706 20005KT P6SM SCT200 BKN250
     FM261000 23004KT P6SM VCSH BKN030 BKN050
     FM261400 27015G22KT P6SM SCT030 BKN050
     FM261600 28020G28KT P6SM FEW030 SCT050 SCT120
     FM270000 28016G23KT P6SM SKC=

USA.gov is the U.S. government's official web portal to all federal, state and local government web resources and services.